Вернуться в каталог

BREEZE-M DEB

TANK

АктивенHEO
NORAD 41193·DEBRIS·🇷🇺 Russia

Запущен Dec 24, 2015 с Baikonur Cosmodrome

Loading…

Ближайшие Пролёты (ближайшие 24 часа)

TLE

СвежийSource: Space-Track

Эпоха: Sep 11, 2026, 09:07 UTC

1 41193U 15082C   26254.37989553  .00004453  00000-0  89774-3 0  9996
2 41193  49.5579 321.4350 5203297  13.6273 356.3528  5.27669775202175

Отслеживайте BREEZE-M DEB в реальном времени с AllMySat

Download on the App Store